Weather in Chernorechenskiy

Russia / Kirov Oblast     60°43′35″N   52°02′46″E
temp.,
°C
wind,
m/s
gust,
m/s
humid.,
%
clouds,
%
prec.,
mm/h
press.,
hPa
HPBL,
m
18 may, tue
tue1823:00+13nw498580 0.1 1017647
02:00+13nnw3887100 0.0 1018502
05:00+10n269827 0.0 1020199
08:00+12nne357841 0.0 1021547
11:00+17ne23571 0.0 10211001
14:00+20ne23419 0.0 10221444
17:00+21ene223618 0.0 10221547
20:00+20e2345100 0.0 1021145
19 may, wed
wed1923:00+13se236694 0.0 102353
02:00+12se2572100 0.0 102376
05:00+10sse267948 0.0 1023104
08:00+15s36606 0.0 1023284
11:00+21s354521 0.0 10231062
14:00+24s343467 0.0 10221619
17:00+25ssw343222 0.0 10211739
20:00+22s36425 0.0 1020311
20 may, thu
thu2023:00+16s246593 0.0 102060
02:00+14ssw247267 0.0 102072
05:00+12ssw257497 0.0 102189
08:00+16ssw366041 0.0 1021224
11:00+23ssw343711 0.0 10201102
14:00+25ssw45272 0.0 10191718
17:00+26ssw34240 0.0 10181749
20:00+24s26360 0.0 1017225
21 may, fri
fri2123:00+17s23570 0.0 101743
02:00+14s22680 0.0 101732
05:00+13s23730 0.0 101757
08:00+18s35560 0.0 1016259
11:00+23s48370 0.0 10151664
14:00+25s57295 0.0 10142272
17:00+25s592752 0.0 10123132
20:00+21s224086 0.0 101131
22 may, sat
sat2223:00+17s236399 0.0 101045
02:00+17sw51162100 0.0 1010437
05:00+15sse2571100 0.1 1010188
08:00+16ssw2772100 0.0 1009409
11:00+15w4881100 0.4 1010657
14:00+18wnw5868100 0.8 10111338
17:00+18nw495297 1.1 10141903
20:00+18w373828 0.0 1014772